AirNav   Everest Fuels
 
 1164 users online  

N71 Donegal Springs Airpark
Mount Joy/Marietta, Pennsylvania, USA

GOING TO MOUNT JOY/MARIETTA?


FAA INFORMATION EFFECTIVE 10 SEPTEMBER 2020

Location

FAA Identifier: N71
Lat/Long: 40-05-31.9440N 076-34-27.6790W
40-05.532400N 076-34.461317W
40.0922067,-76.5743553
(estimated)
Elevation: 458 ft. / 140 m (estimated)
Variation: 09W (1975)
From city: 3 miles SW of central business district of the associated city
Time zone: UTC -4 (UTC -5 during Standard Time)
Zip code: 17547

Airport Operations

Airport use: Open to the public
Activation date: 05/1947
Control tower: no
ARTCC: NEW YORK CENTER
FSS: WILLIAMSPORT FLIGHT SERVICE STATION
NOTAMs facility: IPT (NOTAM-D service available)
Attendance: MON-FRI 0800-1700, ALL SAT UNATTND, ALL SUN UNATTND
Wind indicator: yes
Segmented circle: no
Lights: ACTVT MIRL RWY 10/28 - CTAF.
Beacon: white-green (lighted land airport)
ACTVT ROTG BCN - CTAF

Airport Communications

CTAF/UNICOM: 122.8
HARRISBURG APPROACH: 126.45
HARRISBURG DEPARTURE: 126.45
CLEARANCE DELIVERY: 127.05
WX ASOS at MDT (11 nm NW): 118.8 (717-944-1372)
WX ASOS at LNS (13 nm E): 125.675 (717-569-8860)
WX ASOS at CXY (15 nm NW): PHONE 717-770-0880
WX ASOS at THV (17 nm SW): 119.275 (717-792-5529)
WX AWOS-2 at 9D4 (19 nm NE): 118.45 (717-866-2906)

Nearby radio navigation aids

VOR radial/distance  VOR name  Freq  Var
LRPr272/13.1LANCASTER VOR/DME117.3009W
HARr129/26.0HARRISBURG VORTAC112.5010W
RAVr189/27.7RAVINE VORTAC114.6011W

 
NDB name  Hdg/Dist  Freq  Var  ID
BELLGROVE193/20.632810WBZJ -... --.. .---

Airport Services

Fuel available: 100LL
Parking: tiedowns
Airframe service: MAJOR
Powerplant service: NONE
Bottled oxygen: NONE
Bulk oxygen: NONE

Runway Information

Runway 10/28

Dimensions: 3250 x 50 ft. / 991 x 15 m
Surface: asphalt, in fair condition
Weight bearing capacity: 
Single wheel: 12.5
Runway edge lights: medium intensity
RUNWAY 10  RUNWAY 28
Latitude: 40-05.508200N40-05.557200N
Longitude: 076-34.809183W076-34.115083W
Elevation: 458.0 ft.400.0 ft.
Traffic pattern: leftleft
Runway heading: 094 magnetic, 085 true274 magnetic, 265 true
Displaced threshold: 300 ft.
RWY 10 DTHR BAR 300 FT FM RWY END, DTHR LGTS 300 FT FM RWY END.
no
Markings: nonprecision, in good conditionnonprecision, in good condition
Touchdown point: yes, no lightsyes, no lights

Airport Ownership and Management from official FAA records

Ownership: Privately-owned
Owner: N71, INC.
23415 THREE NOTCH ROAD, SUITE 2008, #122
CALIFORNIA, MD 20619
Phone 301-904-0299
Manager: BEN TRAVIS
186 AIRPORT RD
MARIETTA, PA 17547
Phone 717-928-4360

Airport Operational Statistics

Aircraft based on the field: 12
Single engine airplanes: 12
    
Aircraft operations: avg 33/day *
50% local general aviation
42% transient general aviation
8% military
* for 12-month period ending 20 December 2019

Additional Remarks

A57-10 RWY 10 APCH SLOPE RATIO 20:1 TO DTHR LGTS 300 FT FM RWY END.
FOR CD CTC HARRISBURG APCH AT 800-932-0712.
A58-10 RWY 10; 15 FT ROAD 16 FT FM RWY END.
A52-10 RWY 10 HAS 30 FT HOUSE 190 FT FM DTHR, 206 FT RIGHT; APCH RATIO 6:1 TO DTHR.

Instrument Procedures

NOTE: All procedures below are presented as PDF files. If you need a reader for these files, you should download the free Adobe Reader.

NOT FOR NAVIGATION. Please procure official charts for flight.
FAA instrument procedures published for use from 10 September 2020 at 0901Z to 08 October 2020 at 0900z.

 
IAPs - Instrument Approach Procedures
RNAV (GPS) RWY 28   download (182KB)
VOR RWY 28   download (212KB)
NOTE: Special Take-Off Minimums/Departure Procedures apply   download (149KB)

Other nearby airports with instrument procedures:

KMDT - Harrisburg International Airport (11 nm NW)
58N - Reigle Field Airport (12 nm N)
KLNS - Lancaster Airport (13 nm E)
KCXY - Capital City Airport (15 nm NW)
08N - Keller Brothers Airport (16 nm NE)
KTHV - York Airport (17 nm SW)
9D4 - Deck Airport (19 nm NE)
 
Loc | Ops | Rwys | IFR | FBO | Links
Com | Nav | Svcs | Stats | Notes
Area around N71 (Donegal Springs Airpark)
 
Road maps at: MapQuest Bing Google
 
Aerial photo
WARNING: Photo may not be current or correct
Aerial photo of N71 (Donegal Springs Airpark)
Looking east.

Do you have a better or more recent aerial photo of Donegal Springs Airpark that you would like to share? If so, please send us your photo.

 
Sectional chart

 
Airport distance calculator
Flying to Donegal Springs Airpark? Find the distance to fly.

From to N71

Sunrise and sunset
Times for 28-Sep-2020
 Local
(UTC-4)
 Zulu
(UTC)
Morning civil twilight06:3510:35
Sunrise07:0211:02
Sunset18:5222:52
Evening civil twilight19:1923:19

Current date and time
Zulu (UTC)  29-Sep-2020 00:03:05
Local (UTC-4)  28-Sep-2020 20:03:05
 
METAR
KMDT 
11nm NW 
282356Z 14010KT 10SM SCT025 BKN036 OVC100 24/19 A2982 RMK AO2 SLP097 T02440194 10294 20239 50004
KLNS 
13nm E 
282353Z 17007KT 10SM CLR 24/18 A2985 RMK AO2 SLP106 T02390183 10283 20239 50002
KCXY 
15nm NW 
282356Z 14007KT 10SM BKN038 BKN049 26/19 A2982 RMK AO2 SLP098 T02560189 10294 20256 51004
KTHV 
18nm SW 
282353Z AUTO 15009KT 10SM CLR 23/18 A2983 RMK AO2 SLP101 T02280183 10283 20228 50000
KMUI 
19nm N 
282356Z 16008KT 10SM BKN038 OVC050 23/19 A2984 RMK AO2A SLP105 T02320191 10272 20232 50006
TAF
KMDT 
11nm NW 
282117Z 2821/2918 16011KT P6SM VCSH SCT035 BKN070 FM290200 15008KT P6SM SCT035 OVC100 FM290800 15006KT P6SM VCSH BKN030 TEMPO 2909/2912 3SM BR OVC012 FM291300 20009KT 5SM -SHRA BR OVC015
KLNS 
13nm E 
282119Z 2821/2918 18011G17KT P6SM SCT035 BKN100 FM290200 17008KT P6SM SCT035 OVC100 FM290800 15004KT P6SM VCSH BKN030 TEMPO 2909/2913 3SM -DZ BR OVC007 FM291300 20009KT 2SM -SHRA BR OVC007
KMUI 
19nm N 
281900Z 2819/3001 10009KT 9999 BKN030 QNH2983INS BECMG 2823/2824 16009KT 9999 BKN020 OVC030 QNH2985INS BECMG 2906/2907 17009KT 4800 BR OVC005 QNH2985INS TEMPO 2909/2913 1600 -RA BR BECMG 2912/2913 17012KT 8000 -SHRA BKN005 OVC015 QNH2987INS BECMG 2915/2916 23012KT 8000 -SHRA OVC010 QNH2980INS TEMPO 2916/2918 23015G25KT 4800 -TSRA SCT005 OVC015CB TX26/2819Z TN18/2910Z LAST NO AMDS AFT 2904 NEXT 2911
NOTAMs
Click for the latest NOTAMs
NOTAMs are issued by the DoD/FAA and will open in a separate window not controlled by AirNav.

 

 
 

FBO, Fuel Providers, and Aircraft Ground Support

  
 Business Name 
 
 Contact 
 
 Services / Description 
 
Fuel Prices
 
Comments
  
N71, Inc. 717-928-4360
no information available

If you are affiliated with N71, Inc. and would like to show here your services, contact info, web link, logo, and more, click here
100LL
SS $4.49 
 Updated 21-Sep-2020
 
   2 read write
SS=Self service
Update Fuel Prices
 

Would you like to see your business listed on this page?

 If your business provides an interesting product or service to pilots, flight crews, aircraft, or users of the Donegal Springs Airpark, you should consider listing it here.  To start the listing process, click on the button below
 
Add a business
 

Other Pages about Donegal Springs Airpark

flyn71.com/index.html
 
Update a link
 
Copyright © AirNav, LLC. All rights reserved. Privacy Policy  Contact